CW5244 Weather Reports


time (UTC)temp
C
wind
direction
speed
KPH
gust
KPH
rain 1hr
cm
rain 24hr
cm
rain mn
cm
humidity
%
barometer
mb
20260510153518 26 60 0.0 3.2 0.00 0.03 0.00 67 1016.3
20260510153029 26 124 0.0 3.2 0.00 0.03 0.00 68 1016.4
20260510152531 26 287 0.0 3.2 0.00 0.03 0.00 68 1016.4
20260510152037 26 113 0.0 4.8 0.00 0.03 0.00 70 1016.3
20260510151545 26 80 0.0 4.8 0.00 0.03 0.00 70 1016.2
20260510151051 26 89 0.0 1.6 0.00 0.03 0.00 71 1016.4
20260510150559 26 225 0.0 1.6 0.00 0.03 0.00 70 1016.3
20260510150114 26 264 0.0 6.4 0.00 0.03 0.00 72 1016.3
20260510145512 25 253 1.6 6.4 0.00 0.03 0.00 72 1016.4
20260510145014 26 268 0.0 4.8 0.00 0.03 0.00 73 1016.4
20260510144522 25 114 0.0 4.8 0.00 0.03 0.00 72 1016.4
20260510144021 25 213 0.0 4.8 0.00 0.03 0.00 73 1016.5
20260510143526 25 6 0.0 4.8 0.00 0.03 0.00 73 1016.4
20260510143039 25 182 1.6 4.8 0.00 0.03 0.00 74 1016.4
20260510142541 25 110 0.0 3.2 0.00 0.03 0.00 75 1016.4
20260510142044 24 229 0.0 4.8 0.00 0.03 0.00 76 1016.2
20260510141550 24 237 0.0 4.8 0.00 0.03 0.00 77 1016.3
20260510141056 24 293 0.0 3.2 0.00 0.03 0.00 77 1016.3
20260510140605 24 106 0.0 3.2 0.00 0.03 0.00 77 1016.1
20260510140006 23 250 0.0 3.2 0.00 0.03 0.00 79 1016.2
20260510135514 23 259 0.0 3.2 0.00 0.03 0.00 79 1016.1
20260510135020 23 108 0.0 3.2 0.00 0.03 0.00 80 1016.1
20260510134527 22 215 0.0 3.2 0.00 0.03 0.00 81 1016.0
20260510134031 22 160 0.0 1.6 0.00 0.03 0.00 82 1016.1
20260510133538 22 158 0.0 0.0 0.00 0.03 0.00 83 1016.2
20260510133046 21 158 0.0 1.6 0.00 0.03 0.00 84 1016.2
20260510132552 21 202 0.0 1.6 0.00 0.03 0.00 85 1016.2
20260510132100 21 180 0.0 1.6 0.00 0.03 0.00 86 1016.1
20260510131501 20 225 0.0 1.6 0.00 0.03 0.00 87 1016.0
20260510131008 20 126 0.0 1.6 0.00 0.03 0.00 87 1015.9
20260510130515 20 139 0.0 0.0 0.00 0.03 0.00 87 1016.0
20260510130028 20 139 0.0 0.0 0.00 0.03 0.00 88 1016.0
20260510125529 19 139 0.0 0.0 0.00 0.03 0.00 88 1016.0
20260510125035 19 139 0.0 1.6 0.00 0.03 0.00 89 1016.0
20260510124605 18 139 0.0 1.6 0.00 0.03 0.00 89 1016.0
20260510124049 18 139 0.0 3.2 0.00 0.03 0.00 90 1016.0
20260510123539 18 199 0.0 3.2 0.00 0.03 0.00 90 1016.0
20260510123043 18 130 0.0 1.6 0.00 0.03 0.00 91 1015.9
20260510122551 17 130 0.0 1.6 0.00 0.03 0.00 91 1015.8
20260510122057 17 131 0.0 1.6 0.00 0.03 0.00 92 1015.8
20260510121501 17 123 0.0 1.6 0.00 0.03 0.00 93 1015.8
20260510121006 16 123 0.0 1.6 0.00 0.03 0.00 93 1015.7
20260510120515 16 150 0.0 0.0 0.00 0.03 0.00 93 1015.7
20260510120023 16 150 0.0 0.0 0.00 0.03 0.00 93 1015.8
20260510115529 16 150 0.0 0.0 0.00 0.03 0.00 93 1015.8
20260510115035 15 150 0.0 0.0 0.00 0.03 0.00 93 1015.8
20260510114544 15 150 0.0 0.0 0.00 0.03 0.00 93 1015.7
20260510114049 15 150 0.0 0.0 0.00 0.03 0.00 93 1015.7
20260510113558 15 150 0.0 0.0 0.00 0.03 0.00 93 1015.7
20260510113110 15 150 0.0 0.0 0.00 0.03 0.00 92 1015.7
20260510112552 14 150 0.0 0.0 0.00 0.03 0.00 92 1015.6
20260510112100 14 150 0.0 0.0 0.00 0.03 0.00 92 1015.4
20260510111503 14 150 0.0 0.0 0.00 0.03 0.00 91 1015.3
20260510111058 14 150 0.0 0.0 0.00 0.03 0.00 91 1015.3
20260510110605 14 150 0.0 0.0 0.00 0.03 0.00 91 1015.3
20260510110009 14 150 0.0 0.0 0.00 0.03 0.00 91 1015.2
20260510105600 14 150 0.0 0.0 0.00 0.03 0.00 91 1015.1
20260510105043 14 150 0.0 0.0 0.00 0.03 0.00 91 1015.0
20260510104603 14 150 0.0 0.0 0.00 0.03 0.00 91 1014.9
20260510104056 14 150 0.0 0.0 0.00 0.03 0.00 91 1014.8
20260510103603 14 150 0.0 0.0 0.00 0.03 0.00 90 1014.8
20260510103003 14 150 0.0 0.0 0.00 0.03 0.00 90 1014.7
20260510102511 14 150 0.0 0.0 0.00 0.03 0.00 90 1014.6
20260510102018 14 150 0.0 0.0 0.00 0.03 0.00 90 1014.6
20260510101526 14 150 0.0 0.0 0.00 0.03 0.00 90 1014.6
20260510101031 15 150 0.0 0.0 0.00 0.03 0.00 90 1014.5
20260510100542 15 150 0.0 0.0 0.00 0.03 0.00 90 1014.5
20260510100046 15 150 0.0 0.0 0.00 0.03 0.00 90 1014.4
20260510095553 15 150 0.0 0.0 0.00 0.03 0.00 90 1014.5
20260510095100 15 150 0.0 0.0 0.00 0.03 0.00 90 1014.4
20260510094504 15 150 0.0 0.0 0.00 0.03 0.00 90 1014.3
20260510094008 15 150 0.0 0.0 0.00 0.03 0.00 90 1014.2
20260510093516 15 150 0.0 0.0 0.00 0.03 0.00 90 1014.2
20260510093023 15 150 0.0 0.0 0.00 0.03 0.00 90 1014.1
20260510092531 15 150 0.0 0.0 0.00 0.03 0.00 90 1014.1
20260510092035 15 150 0.0 0.0 0.00 0.03 0.00 90 1013.9
20260510091552 15 150 0.0 0.0 0.00 0.03 0.00 89 1013.9
20260510091047 15 150 0.0 0.0 0.00 0.03 0.00 88 1013.8
20260510090557 15 150 0.0 0.0 0.00 0.03 0.00 88 1013.7
20260510090040 15 150 0.0 0.0 0.00 0.03 0.00 88 1013.6
20260510085547 15 150 0.0 0.0 0.00 0.03 0.00 88 1013.6
20260510085051 15 150 0.0 0.0 0.00 0.03 0.00 87 1013.5
20260510084605 15 150 0.0 0.0 0.00 0.03 0.00 88 1013.6
20260510084001 15 150 0.0 0.0 0.00 0.03 0.00 87 1013.6
20260510083600 15 150 0.0 0.0 0.00 0.03 0.00 87 1013.6
20260510083115 15 150 0.0 0.0 0.00 0.03 0.00 87 1013.7
20260510082505 15 150 0.0 0.0 0.00 0.03 0.00 88 1013.7
20260510082012 15 150 0.0 0.0 0.00 0.03 0.00 86 1013.7
20260510081532 15 150 0.0 0.0 0.00 0.03 0.00 86 1013.6
20260510081026 15 150 0.0 0.0 0.00 0.03 0.00 86 1013.5
20260510080533 15 150 0.0 0.0 0.00 0.03 0.00 86 1013.6
20260510080040 15 150 0.0 0.0 0.00 0.03 0.00 86 1013.6
20260510075539 15 150 0.0 0.0 0.00 0.03 0.00 86 1013.6
20260510075046 15 150 0.0 0.0 0.00 0.03 0.00 86 1013.5
20260510074553 15 150 0.0 0.0 0.00 0.03 0.00 85 1013.6
20260510074059 15 150 0.0 0.0 0.00 0.03 0.00 84 1013.5
20260510073502 15 150 0.0 0.0 0.00 0.03 0.00 84 1013.5
20260510073016 15 150 0.0 0.0 0.00 0.03 0.00 84 1013.6
20260510072502 15 150 0.0 0.0 0.00 0.03 0.00 83 1013.7
20260510072053 15 150 0.0 0.0 0.00 0.03 0.00 83 1013.6
20260510071602 15 150 0.0 0.0 0.00 0.03 0.00 82 1013.5
20260510071006 15 150 0.0 0.0 0.00 0.03 0.00 83 1013.6
20260510070510 15 150 0.0 0.0 0.00 0.03 0.00 82 1013.5
20260510070023 15 150 0.0 0.0 0.00 0.03 0.00 82 1013.7
20260510065523 15 150 0.0 0.0 0.00 0.03 0.00 82 1013.7
20260510065029 15 150 0.0 0.0 0.00 0.03 0.00 82 1013.7
20260510064002 15 150 0.0 0.0 0.00 0.03 0.00 81 1013.6
20260510063510 15 150 0.0 0.0 0.00 0.03 0.00 81 1013.5
20260510063021 15 150 0.0 0.0 0.00 0.03 0.00 81 1013.4
20260510062530 15 150 0.0 0.0 0.00 0.03 0.00 80 1013.4
20260510062037 15 150 0.0 0.0 0.00 0.03 0.00 81 1013.2
20260510061548 15 150 0.0 0.0 0.00 0.03 0.00 81 1013.2
20260510061048 15 150 0.0 0.0 0.00 0.03 0.00 80 1013.1
20260510060557 15 150 0.0 0.0 0.00 0.03 0.00 81 1013.1
20260510060059 16 150 0.0 0.0 0.00 0.03 0.00 81 1013.1
20260510055502 15 150 0.0 0.0 0.00 0.03 0.00 79 1013.0
20260510055008 15 150 0.0 0.0 0.00 0.03 0.00 80 1013.1
20260510054605 16 150 0.0 0.0 0.00 0.03 0.00 80 1013.1
20260510054008 16 150 0.0 0.0 0.00 0.03 0.00 81 1013.2
20260510053517 16 150 0.0 0.0 0.00 0.03 0.00 80 1013.1
20260510053023 16 150 0.0 0.0 0.00 0.03 0.00 80 1013.0
20260510052529 16 147 0.0 0.0 0.00 0.03 0.00 81 1013.0
20260510052033 16 147 0.0 0.0 0.00 0.03 0.00 81 1013.0
20260510051541 16 147 0.0 0.0 0.00 0.03 0.00 80 1013.0
20260510051050 16 147 0.0 0.0 0.00 0.03 0.00 80 1012.9
20260510050557 16 147 0.0 0.0 0.00 0.03 0.00 80 1012.9
20260510050112 16 147 0.0 0.0 0.00 0.03 0.00 79 1012.9
20260510045551 16 147 0.0 0.0 0.00 0.03 0.03 79 1012.9
20260510045038 16 147 0.0 0.0 0.00 0.03 0.03 79 1012.9
20260510044553 16 148 0.0 0.0 0.00 0.03 0.03 79 1012.9
20260510044049 16 147 0.0 0.0 0.00 0.03 0.03 79 1012.9
20260510043557 16 147 0.0 0.0 0.00 0.03 0.03 78 1012.9
20260510043103 16 148 0.0 0.0 0.00 0.03 0.03 78 1012.9
20260510042553 16 147 0.0 0.0 0.00 0.03 0.03 79 1012.9
20260510042040 16 147 0.0 0.0 0.00 0.03 0.03 78 1012.9
20260510041602 17 147 0.0 0.0 0.00 0.03 0.03 78 1012.9
20260510041052 17 147 0.0 0.0 0.00 0.03 0.03 77 1013.0
20260510040543 17 147 0.0 0.0 0.00 0.03 0.03 77 1013.1
20260510040030 17 147 0.0 0.0 0.00 0.03 0.03 77 1013.1
20260510035537 17 147 0.0 0.0 0.00 0.03 0.03 76 1013.1
20260510035043 17 147 0.0 0.0 0.00 0.03 0.03 77 1013.1
20260510034558 17 147 0.0 0.0 0.00 0.03 0.03 76 1013.1
20260510034056 17 147 0.0 0.0 0.00 0.03 0.03 75 1013.0
20260510033604 17 147 0.0 0.0 0.00 0.03 0.03 76 1013.0
20260510033005 17 156 0.0 0.0 0.00 0.03 0.03 75 1013.1
20260510032512 17 156 0.0 0.0 0.00 0.03 0.03 74 1013.1
20260510032020 17 156 0.0 0.0 0.00 0.03 0.03 74 1013.1
20260510031532 17 156 0.0 0.0 0.00 0.03 0.03 74 1013.0
20260510031031 18 156 0.0 0.0 0.00 0.03 0.03 73 1013.0
20260510030539 18 156 0.0 1.6 0.00 0.03 0.03 73 1013.0
20260510030055 18 156 0.0 1.6 0.00 0.03 0.03 73 1013.0
20260510025554 18 101 0.0 0.0 0.00 0.03 0.03 72 1013.0
20260510025104 18 101 0.0 0.0 0.00 0.03 0.03 72 1012.9
20260510024504 18 101 0.0 0.0 0.00 0.03 0.03 71 1012.9
20260510024006 18 101 0.0 0.0 0.00 0.03 0.03 71 1012.8
20260510023513 18 101 0.0 0.0 0.00 0.03 0.03 70 1012.9
20260510023018 18 101 0.0 0.0 0.00 0.03 0.03 70 1012.8
20260510022525 19 101 0.0 0.0 0.00 0.03 0.03 69 1012.7
20260510022027 19 101 0.0 1.6 0.00 0.03 0.03 68 1012.6
20260510021535 19 101 0.0 1.6 0.00 0.03 0.03 67 1012.6
20260510021042 19 63 0.0 0.0 0.00 0.03 0.03 66 1012.4
20260510020546 20 63 0.0 0.0 0.00 0.03 0.03 65 1012.4
20260510020037 20 63 0.0 0.0 0.00 0.03 0.03 64 1012.4
20260510015543 20 63 0.0 0.0 0.00 0.03 0.03 64 1012.3
20260510015049 20 63 0.0 0.0 0.00 0.03 0.03 63 1012.2
20260510014600 20 63 0.0 0.0 0.00 0.03 0.03 62 1012.2
20260510014103 21 63 0.0 0.0 0.00 0.03 0.03 62 1012.0
20260510013504 21 63 0.0 0.0 0.00 0.03 0.03 60 1012.0
20260510013018 21 63 0.0 0.0 0.00 0.03 0.03 59 1012.0
20260510012517 21 63 0.0 0.0 0.00 0.03 0.03 59 1011.8
20260510012022 21 63 0.0 0.0 0.00 0.03 0.03 58 1011.8
20260510011529 21 63 0.0 0.0 0.00 0.03 0.03 58 1011.8
20260510011037 22 61 0.0 0.0 0.00 0.03 0.03 57 1011.6
20260510010542 22 60 0.0 0.0 0.00 0.03 0.03 56 1011.5
20260510010050 22 60 0.0 0.0 0.00 0.03 0.03 55 1011.4
20260510005557 22 60 0.0 0.0 0.00 0.03 0.03 53 1011.4
20260510005105 23 60 0.0 0.0 0.00 0.03 0.03 54 1011.3
20260510004508 23 60 0.0 0.0 0.00 0.03 0.03 52 1011.1
20260510004020 23 60 0.0 0.0 0.00 0.03 0.03 50 1011.1
20260510003532 24 60 0.0 0.0 0.00 0.03 0.03 48 1010.9
20260510003039 24 60 0.0 0.0 0.00 0.03 0.03 46 1011.0
20260510002533 25 60 0.0 0.0 0.00 0.03 0.03 45 1010.8
20260510002040 25 60 0.0 0.0 0.00 0.03 0.03 44 1010.7
20260510001550 25 60 0.0 1.6 0.00 0.03 0.03 44 1010.8
20260510001053 25 60 0.0 1.6 0.00 0.03 0.03 43 1010.7
20260510000601 25 60 0.0 0.0 0.00 0.03 0.03 42 1010.7
20260510000002 26 56 0.0 1.6 0.00 0.03 0.03 41 1010.6
20260509235509 26 56 0.0 1.6 0.00 0.03 0.03 40 1010.5
20260509235058 26 56 0.0 1.6 0.00 0.03 0.03 40 1010.5
20260509234507 26 58 0.0 0.0 0.00 0.03 0.03 39 1010.4
20260509234006 26 58 0.0 1.6 0.00 0.03 0.03 39 1010.4
20260509233513 26 60 0.0 1.6 0.00 0.03 0.03 39 1010.3
20260509233031 26 61 0.0 1.6 0.00 0.03 0.03 39 1010.3
20260509232524 27 63 0.0 1.6 0.00 0.03 0.03 39 1010.3
20260509232028 27 100 0.0 1.6 0.00 0.03 0.03 38 1010.3
20260509231547 27 100 0.0 1.6 0.00 0.03 0.03 37 1010.4
20260509231045 27 101 0.0 1.6 0.00 0.03 0.03 37 1010.3
20260509230548 28 49 0.0 1.6 0.00 0.03 0.03 36 1010.2
20260509230106 28 263 0.0 1.6 0.00 0.03 0.03 37 1010.2
20260509225604 28 207 0.0 3.2 0.00 0.03 0.03 36 1010.2
20260509225055 28 105 0.0 3.2 0.00 0.03 0.03 36 1010.2
20260509224604 28 258 0.0 3.2 0.00 0.03 0.03 37 1010.1
20260509224001 28 103 0.0 3.2 0.00 0.03 0.03 34 1010.1
20260509223557 28 58 0.0 1.6 0.00 0.03 0.03 35 1010.0
20260509223103 28 203 0.0 0.0 0.00 0.03 0.03 37 1010.0
20260509222508 28 72 0.0 0.0 0.00 0.03 0.03 37 1010.1
20260509222057 28 75 0.0 1.6 0.00 0.03 0.03 35 1010.1
20260509221501 28 219 0.0 4.8 0.00 0.03 0.03 35 1010.1
20260509221010 28 206 0.0 3.2 0.00 0.03 0.03 34 1010.3
20260509220520 28 252 0.0 4.8 0.00 0.03 0.03 35 1010.4
20260509220025 28 277 0.0 4.8 0.00 0.03 0.03 34 1010.4
20260509215525 28 271 0.0 3.2 0.00 0.03 0.03 34 1010.4
20260509215032 28 355 0.0 3.2 0.00 0.03 0.03 34 1010.3
20260509214538 28 284 0.0 3.2 0.00 0.03 0.03 36 1010.3
20260509214043 28 356 0.0 3.2 0.00 0.03 0.03 35 1010.4
20260509213550 28 101 0.0 4.8 0.00 0.03 0.03 34 1010.4
20260509213058 28 87 0.0 3.2 0.00 0.03 0.03 35 1010.4
20260509212603 28 233 0.0 3.2 0.00 0.03 0.03 33 1010.5
20260509212054 29 45 0.0 3.2 0.00 0.03 0.03 35 1010.6
20260509211604 28 44 0.0 6.4 0.00 0.03 0.03 36 1010.6
20260509211002 28 32 0.0 6.4 0.00 0.03 0.03 35 1010.6
20260509210559 28 131 0.0 3.2 0.00 0.03 0.03 34 1010.7
20260509210058 28 238 0.0 3.2 0.00 0.03 0.03 36 1010.7
20260509205553 28 105 0.0 4.8 0.00 0.03 0.03 34 1010.7
20260509205054 28 283 0.0 3.2 0.00 0.03 0.03 36 1010.7
20260509204546 28 262 0.0 3.2 0.00 0.03 0.03 36 1010.7
20260509204033 28 6 0.0 3.2 0.00 0.03 0.03 35 1010.7
20260509203543 28 37 0.0 6.4 0.00 0.03 0.03 37 1010.7
20260509203047 28 266 0.0 4.8 0.00 0.03 0.03 36 1010.7
20260509202557 28 78 0.0 3.2 0.00 0.03 0.03 35 1010.7
20260509202059 28 252 0.0 4.8 0.00 0.03 0.03 37 1010.7
20260509201557 28 261 0.0 4.8 0.00 0.03 0.03 34 1010.8
20260509201100 28 91 0.0 3.2 0.00 0.03 0.03 35 1010.8
20260509200604 28 117 0.0 3.2 0.00 0.03 0.03 36 1010.8
20260509200006 28 150 0.0 4.8 0.00 0.03 0.03 36 1010.8
20260509195514 28 253 0.0 4.8 0.00 0.03 0.03 35 1010.8
20260509195020 28 255 0.0 4.8 0.00 0.03 0.03 39 1011.0
20260509194524 28 265 0.0 3.2 0.00 0.03 0.03 39 1011.0
20260509194029 28 281 0.0 4.8 0.00 0.03 0.03 41 1011.0
20260509193527 27 267 0.0 6.4 0.00 0.03 0.03 42 1011.0
20260509193031 27 262 3.2 6.4 0.00 0.03 0.03 40 1011.0
20260509192540 27 52 0.0 6.4 0.00 0.03 0.03 45 1010.9
20260509192043 27 85 3.2 9.7 0.00 0.03 0.03 42 1011.0
20260509191554 27 75 3.2 9.7 0.00 0.03 0.03 43 1011.1
20260509191057 27 106 0.0 6.4 0.00 0.03 0.03 43 1011.0
20260509190503 27 110 3.2 6.4 0.00 0.03 0.03 41 1011.2
20260509190108 27 352 0.0 6.4 0.00 0.03 0.03 42 1011.2
20260509185603 27 262 3.2 6.4 0.00 0.03 0.03 39 1011.2
20260509185005 27 84 0.0 3.2 0.00 0.03 0.03 40 1011.3
20260509184610 27 63 0.0 4.8 0.00 0.03 0.03 40 1011.2
20260509184006 27 30 0.0 4.8 0.00 0.03 0.03 40 1011.3
20260509183510 27 275 0.0 4.8 0.00 0.03 0.03 44 1011.4
20260509183027 26 88 0.0 8.0 0.00 0.03 0.03 46 1011.3
20260509182521 26 100 1.6 8.0 0.00 0.03 0.03 46 1011.3
20260509182025 26 86 1.6 4.8 0.00 0.03 0.03 44 1011.5
20260509181532 27 84 1.6 3.2 0.00 0.03 0.03 45 1011.4
20260509181037 27 238 0.0 3.2 0.00 0.03 0.03 46 1011.4
20260509180547 27 233 0.0 3.2 0.00 0.03 0.03 45 1011.5
20260509180059 27 101 0.0 6.4 0.00 0.03 0.03 46 1011.4
20260509175557 26 246 0.0 6.4 0.00 0.03 0.03 50 1011.5
20260509175103 26 225 0.0 6.4 0.00 0.03 0.03 49 1011.5
20260509174506 26 250 1.6 6.4 0.00 0.03 0.03 49 1011.6
20260509174014 26 13 0.0 4.8 0.00 0.03 0.03 49 1011.6
20260509173522 26 239 0.0 4.8 0.00 0.03 0.03 47 1011.7
20260509173029 26 241 0.0 3.2 0.00 0.03 0.03 50 1011.7
20260509172531 26 82 0.0 3.2 0.00 0.03 0.03 46 1011.6
20260509172039 26 144 0.0 8.0 0.00 0.03 0.03 51 1011.6
20260509171548 26 155 1.6 8.0 0.00 0.03 0.03 50 1011.5
20260509171036 26 78 0.0 6.4 0.00 0.03 0.03 51 1011.5
20260509170544 26 117 0.0 6.4 0.00 0.03 0.03 51 1011.6
20260509170059 26 63 0.0 4.8 0.00 0.03 0.03 52 1011.6
20260509165600 26 355 0.0 8.0 0.00 0.03 0.03 53 1011.6
20260509165101 26 262 0.0 3.2 0.03 0.03 0.03 53 1011.6
20260509164503 26 44 0.0 3.2 0.03 0.03 0.03 52 1011.7
20260509164011 26 80 0.0 3.2 0.03 0.03 0.03 53 1011.6
20260509163516 25 89 0.0 6.4 0.03 0.03 0.03 58 1011.6
20260509163040 25 124 0.0 6.4 0.03 0.03 0.03 58 1011.6
20260509162532 25 56 0.0 3.2 0.03 0.03 0.03 58 1011.7
20260509162036 25 235 0.0 3.2 0.03 0.03 0.03 58 1011.6
20260509161552 25 265 0.0 3.2 0.03 0.03 0.03 58 1011.5
20260509161056 25 238 0.0 6.4 0.03 0.03 0.03 59 1011.5
20260509160557 24 213 0.0 6.4 0.03 0.03 0.03 60 1011.4
20260509160109 25 264 1.6 6.4 0.03 0.03 0.03 59 1011.3
20260509155508 25 270 0.0 4.8 0.00 0.00 0.00 60 1011.4
20260509155013 25 101 0.0 4.8 0.00 0.00 0.00 59 1011.4
20260509154532 24 221 0.0 3.2 0.00 0.00 0.00 62 1011.3
20260509154028 24 7 0.0 8.0 0.00 0.00 0.00 61 1011.3